| time (UTC) | temp F | wind direction | speed MPH | gust MPH | rain 1hr in | rain 24hr in | rain mn in | humidity % | barometer mb |
| 20260901104016 | 55 | 295 | 5.0 | 6.0 | 0.00 | 0.00 | 0.00 | 93 | 1013.8 |
| 20260901103514 | 55 | 281 | 4.0 | 4.0 | 0.00 | 0.00 | 0.00 | 93 | 1013.8 |
| 20260901103013 | 55 | 264 | 3.0 | 4.0 | 0.00 | 0.00 | 0.00 | 93 | 1013.8 |
| 20260901102515 | 55 | 261 | 3.0 | 5.0 | 0.00 | 0.00 | 0.00 | 93 | 1013.8 |
| 20260901102013 | 55 | 269 | 4.0 | 5.0 | 0.00 | 0.00 | 0.00 | 93 | 1013.7 |
| 20260901101744 | 55 | 279 | 4.0 | 5.0 | 0.00 | 0.00 | 0.00 | 93 | 1013.6 |
| 20260901101015 | 55 | 276 | 4.0 | 5.0 | 0.00 | 0.00 | 0.00 | 93 | 1013.5 |
| 20260901100512 | 55 | 298 | 4.0 | 5.0 | 0.00 | 0.00 | 0.00 | 93 | 1013.6 |
| 20260901100016 | 55 | 290 | 5.0 | 5.0 | 0.00 | 0.00 | 0.00 | 92 | 1013.7 |
| 20260901095511 | 56 | 276 | 4.0 | 5.0 | 0.00 | 0.00 | 0.00 | 92 | 1013.6 |
| 20260901095013 | 56 | 275 | 4.0 | 6.0 | 0.00 | 0.00 | 0.00 | 93 | 1013.6 |
| 20260901094513 | 56 | 281 | 4.0 | 6.0 | 0.00 | 0.00 | 0.00 | 93 | 1013.6 |
| 20260901094011 | 56 | 268 | 4.0 | 6.0 | 0.00 | 0.00 | 0.00 | 93 | 1013.6 |
| 20260901093740 | 56 | 296 | 5.0 | 6.0 | 0.00 | 0.00 | 0.00 | 93 | 1013.7 |
| 20260901093011 | 56 | 285 | 5.0 | 6.0 | 0.00 | 0.00 | 0.00 | 92 | 1013.6 |
| 20260901092501 | 56 | 279 | 5.0 | 7.0 | 0.00 | 0.00 | 0.00 | 92 | 1013.6 |
| 20260901092000 | 56 | 292 | 5.0 | 7.0 | 0.00 | 0.00 | 0.00 | 92 | 1013.6 |
| 20260901091501 | 56 | 286 | 5.0 | 6.0 | 0.00 | 0.00 | 0.00 | 93 | 1013.7 |
| 20260901091001 | 56 | 279 | 5.0 | 6.0 | 0.00 | 0.00 | 0.00 | 93 | 1013.8 |
| 20260901090501 | 56 | 288 | 4.0 | 5.0 | 0.00 | 0.00 | 0.00 | 93 | 1013.7 |
| 20260901090001 | 56 | 269 | 4.0 | 4.0 | 0.00 | 0.00 | 0.00 | 92 | 1013.7 |
| 20260901085501 | 56 | 286 | 4.0 | 4.0 | 0.00 | 0.00 | 0.00 | 92 | 1013.7 |
| 20260901085001 | 56 | 286 | 4.0 | 4.0 | 0.00 | 0.00 | 0.00 | 93 | 1013.7 |
| 20260901084742 | 55 | 288 | 4.0 | 4.0 | 0.00 | 0.00 | 0.00 | 92 | 1013.6 |
| 20260901084001 | 55 | 286 | 3.0 | 4.0 | 0.00 | 0.00 | 0.00 | 92 | 1013.6 |
| 20260901083513 | 56 | 288 | 3.0 | 5.0 | 0.00 | 0.00 | 0.00 | 91 | 1013.5 |
| 20260901083000 | 56 | 307 | 4.0 | 5.0 | 0.00 | 0.00 | 0.00 | 92 | 1013.5 |
| 20260901082741 | 56 | 299 | 4.0 | 5.0 | 0.00 | 0.00 | 0.00 | 92 | 1013.5 |
| 20260901081958 | 56 | 290 | 3.0 | 5.0 | 0.00 | 0.00 | 0.00 | 92 | 1013.5 |
| 20260901081457 | 57 | 275 | 4.0 | 6.0 | 0.00 | 0.00 | 0.00 | 92 | 1013.5 |
| 20260901080958 | 57 | 283 | 5.0 | 6.0 | 0.00 | 0.00 | 0.00 | 92 | 1013.4 |
| 20260901080458 | 57 | 286 | 3.0 | 5.0 | 0.00 | 0.00 | 0.00 | 92 | 1013.5 |
| 20260901075957 | 57 | 261 | 3.0 | 3.0 | 0.00 | 0.00 | 0.00 | 92 | 1013.5 |
| 20260901075457 | 57 | 266 | 2.0 | 4.0 | 0.00 | 0.00 | 0.00 | 92 | 1013.4 |
| 20260901074957 | 57 | 282 | 3.0 | 4.0 | 0.00 | 0.00 | 0.00 | 92 | 1013.5 |
| 20260901074457 | 57 | 295 | 4.0 | 4.0 | 0.00 | 0.00 | 0.00 | 92 | 1013.4 |
| 20260901073956 | 57 | 289 | 3.0 | 4.0 | 0.00 | 0.00 | 0.00 | 92 | 1013.5 |
| 20260901073457 | 57 | 279 | 3.0 | 4.0 | 0.00 | 0.00 | 0.00 | 91 | 1013.5 |
| 20260901072958 | 57 | 257 | 3.0 | 4.0 | 0.00 | 0.00 | 0.00 | 92 | 1013.6 |
| 20260901072456 | 57 | 281 | 3.0 | 5.0 | 0.00 | 0.00 | 0.00 | 91 | 1013.7 |
| 20260901071957 | 58 | 275 | 4.0 | 5.0 | 0.00 | 0.00 | 0.00 | 92 | 1013.7 |
| 20260901071455 | 57 | 293 | 4.0 | 5.0 | 0.00 | 0.00 | 0.00 | 92 | 1013.8 |
| 20260901070952 | 58 | 288 | 5.0 | 5.0 | 0.00 | 0.00 | 0.00 | 91 | 1013.9 |
| 20260901070452 | 58 | 279 | 4.0 | 5.0 | 0.00 | 0.00 | 0.00 | 92 | 1013.8 |
| 20260901065954 | 58 | 261 | 4.0 | 6.0 | 0.00 | 0.00 | 0.00 | 92 | 1013.8 |
| 20260901065451 | 58 | 281 | 4.0 | 6.0 | 0.00 | 0.00 | 0.00 | 91 | 1013.8 |
| 20260901064951 | 58 | 255 | 5.0 | 6.0 | 0.00 | 0.00 | 0.00 | 92 | 1013.8 |
| 20260901064452 | 58 | 252 | 4.0 | 5.0 | 0.00 | 0.00 | 0.00 | 91 | 1013.8 |
| 20260901063951 | 58 | 282 | 3.0 | 6.0 | 0.00 | 0.00 | 0.00 | 92 | 1014.0 |
| 20260901063452 | 58 | 243 | 4.0 | 6.0 | 0.00 | 0.00 | 0.00 | 92 | 1013.8 |
| 20260901062952 | 57 | 243 | 5.0 | 7.0 | 0.00 | 0.00 | 0.00 | 91 | 1014.0 |
| 20260901062451 | 58 | 266 | 4.0 | 7.0 | 0.00 | 0.00 | 0.00 | 92 | 1014.1 |
| 20260901061948 | 58 | 290 | 5.0 | 6.0 | 0.00 | 0.00 | 0.00 | 91 | 1014.2 |
| 20260901061449 | 58 | 274 | 4.0 | 4.0 | 0.00 | 0.00 | 0.00 | 91 | 1014.0 |
| 20260901060947 | 59 | 268 | 3.0 | 5.0 | 0.00 | 0.00 | 0.00 | 91 | 1014.1 |
| 20260901060447 | 59 | 255 | 3.0 | 5.0 | 0.00 | 0.00 | 0.00 | 92 | 1014.0 |
| 20260901055945 | 59 | 247 | 4.0 | 5.0 | 0.00 | 0.00 | 0.00 | 91 | 1014.0 |
| 20260901055447 | 59 | 250 | 4.0 | 5.0 | 0.00 | 0.00 | 0.00 | 92 | 1014.0 |
| 20260901054940 | 59 | 251 | 4.0 | 5.0 | 0.00 | 0.00 | 0.00 | 91 | 1014.0 |
| 20260901054441 | 59 | 259 | 4.0 | 6.0 | 0.00 | 0.00 | 0.00 | 92 | 1014.0 |
| 20260901054227 | 59 | 257 | 5.0 | 6.0 | 0.00 | 0.00 | 0.00 | 92 | 1014.1 |
| 20260901053729 | 59 | 262 | 4.0 | 5.0 | 0.00 | 0.00 | 0.00 | 91 | 1014.0 |
| 20260901052955 | 58 | 266 | 4.0 | 5.0 | 0.00 | 0.00 | 0.00 | 91 | 1013.9 |
| 20260901051938 | 59 | 278 | 4.0 | 6.0 | 0.00 | 0.00 | 0.00 | 91 | 1014.0 |
| 20260901051438 | 60 | 271 | 5.0 | 6.0 | 0.00 | 0.00 | 0.00 | 91 | 1014.0 |
| 20260901051225 | 60 | 259 | 4.0 | 5.0 | 0.00 | 0.00 | 0.00 | 91 | 1014.0 |
| 20260901050438 | 60 | 254 | 3.0 | 4.0 | 0.00 | 0.00 | 0.00 | 91 | 1014.0 |
| 20260901045937 | 60 | 269 | 4.0 | 4.0 | 0.00 | 0.00 | 0.00 | 91 | 1013.9 |
| 20260901045437 | 60 | 275 | 4.0 | 4.0 | 0.00 | 0.00 | 0.00 | 91 | 1013.9 |
| 20260901044938 | 60 | 283 | 3.0 | 4.0 | 0.00 | 0.00 | 0.00 | 91 | 1013.9 |
| 20260901044437 | 60 | 275 | 3.0 | 4.0 | 0.00 | 0.00 | 0.00 | 91 | 1013.9 |
| 20260901043935 | 60 | 271 | 3.0 | 4.0 | 0.00 | 0.00 | 0.00 | 91 | 1014.0 |
| 20260901043435 | 60 | 271 | 3.0 | 5.0 | 0.00 | 0.00 | 0.00 | 91 | 1013.9 |
| 20260901042937 | 61 | 274 | 4.0 | 5.0 | 0.00 | 0.00 | 0.00 | 91 | 1013.9 |
| 20260901042433 | 61 | 278 | 3.0 | 5.0 | 0.00 | 0.00 | 0.00 | 91 | 1013.9 |
| 20260901041934 | 61 | 276 | 4.0 | 5.0 | 0.00 | 0.00 | 0.00 | 91 | 1013.8 |
| 20260901041434 | 61 | 275 | 4.0 | 4.0 | 0.00 | 0.00 | 0.00 | 91 | 1013.8 |
| 20260901040935 | 61 | 268 | 3.0 | 5.0 | 0.00 | 0.00 | 0.00 | 91 | 1013.8 |
| 20260901040435 | 62 | 259 | 3.0 | 5.0 | 0.00 | 0.00 | 0.00 | 91 | 1013.9 |
| 20260901035934 | 62 | 255 | 4.0 | 4.0 | 0.00 | 0.00 | 0.00 | 90 | 1013.7 |
| 20260901035433 | 62 | 269 | 3.0 | 4.0 | 0.00 | 0.00 | 0.00 | 90 | 1013.8 |
| 20260901035220 | 62 | 269 | 3.0 | 4.0 | 0.00 | 0.00 | 0.00 | 90 | 1013.8 |
| 20260901034432 | 62 | 278 | 3.0 | 5.0 | 0.00 | 0.00 | 0.00 | 90 | 1013.8 |
| 20260901033933 | 62 | 272 | 3.0 | 5.0 | 0.00 | 0.00 | 0.00 | 90 | 1013.7 |
| 20260901033448 | 63 | 269 | 3.0 | 4.0 | 0.00 | 0.00 | 0.00 | 90 | 1013.8 |
| 20260901032432 | 63 | 264 | 4.0 | 5.0 | 0.00 | 0.00 | 0.00 | 90 | 1013.7 |
| 20260901031934 | 63 | 258 | 4.0 | 5.0 | 0.00 | 0.00 | 0.00 | 89 | 1013.7 |
| 20260901031716 | 63 | 264 | 3.0 | 5.0 | 0.00 | 0.00 | 0.00 | 90 | 1013.5 |
| 20260901030932 | 63 | 252 | 4.0 | 5.0 | 0.00 | 0.00 | 0.00 | 89 | 1013.5 |
| 20260901030432 | 63 | 248 | 4.0 | 5.0 | 0.00 | 0.00 | 0.00 | 88 | 1013.6 |
| 20260901025934 | 64 | 245 | 4.0 | 6.0 | 0.00 | 0.00 | 0.00 | 88 | 1013.5 |
| 20260901025430 | 64 | 250 | 5.0 | 6.0 | 0.00 | 0.00 | 0.00 | 89 | 1013.4 |
| 20260901024930 | 65 | 238 | 5.0 | 6.0 | 0.00 | 0.00 | 0.00 | 89 | 1013.4 |
| 20260901024430 | 65 | 233 | 4.0 | 5.0 | 0.00 | 0.00 | 0.00 | 88 | 1013.3 |
| 20260901023929 | 65 | 228 | 3.0 | 4.0 | 0.00 | 0.00 | 0.00 | 89 | 1013.2 |
| 20260901023429 | 65 | 245 | 2.0 | 3.0 | 0.00 | 0.00 | 0.00 | 88 | 1013.2 |
| 20260901022929 | 65 | 245 | 2.0 | 3.0 | 0.00 | 0.00 | 0.00 | 88 | 1013.3 |
| 20260901022429 | 65 | 245 | 2.0 | 3.0 | 0.00 | 0.00 | 0.00 | 88 | 1013.3 |
| 20260901021930 | 65 | 245 | 2.0 | 3.0 | 0.00 | 0.00 | 0.00 | 88 | 1013.3 |
| 20260901021717 | 66 | 238 | 2.0 | 3.0 | 0.00 | 0.00 | 0.00 | 87 | 1013.2 |
| 20260901020929 | 66 | 238 | 2.0 | 3.0 | 0.00 | 0.00 | 0.00 | 87 | 1013.1 |
| 20260901020429 | 66 | 238 | 3.0 | 3.0 | 0.00 | 0.00 | 0.00 | 87 | 1013.0 |
| 20260901015928 | 66 | 237 | 2.0 | 4.0 | 0.00 | 0.00 | 0.00 | 87 | 1013.0 |
| 20260901015428 | 67 | 234 | 3.0 | 4.0 | 0.00 | 0.00 | 0.00 | 85 | 1012.9 |
| 20260901014929 | 67 | 230 | 3.0 | 4.0 | 0.00 | 0.00 | 0.00 | 84 | 1013.0 |
| 20260901014428 | 68 | 224 | 2.0 | 3.0 | 0.00 | 0.00 | 0.00 | 84 | 1012.9 |
| 20260901013928 | 68 | 224 | 3.0 | 3.0 | 0.00 | 0.00 | 0.00 | 83 | 1012.7 |
| 20260901013427 | 68 | 233 | 3.0 | 3.0 | 0.00 | 0.00 | 0.00 | 83 | 1012.8 |
| 20260901012925 | 69 | 233 | 3.0 | 3.0 | 0.00 | 0.00 | 0.00 | 83 | 1012.9 |
| 20260901012428 | 69 | 230 | 2.0 | 4.0 | 0.00 | 0.00 | 0.00 | 82 | 1012.7 |
| 20260901011925 | 69 | 230 | 3.0 | 4.0 | 0.00 | 0.00 | 0.00 | 82 | 1012.7 |
| 20260901011424 | 70 | 238 | 3.0 | 4.0 | 0.00 | 0.00 | 0.00 | 81 | 1012.7 |
| 20260901010924 | 70 | 243 | 3.0 | 5.0 | 0.00 | 0.00 | 0.00 | 80 | 1012.7 |
| 20260901010424 | 71 | 221 | 4.0 | 5.0 | 0.00 | 0.00 | 0.00 | 80 | 1012.6 |
| 20260901005923 | 71 | 224 | 3.0 | 4.0 | 0.00 | 0.00 | 0.00 | 79 | 1012.6 |
| 20260901005426 | 72 | 220 | 2.0 | 4.0 | 0.00 | 0.00 | 0.00 | 78 | 1012.6 |
| 20260901004923 | 73 | 210 | 3.0 | 4.0 | 0.00 | 0.00 | 0.00 | 78 | 1012.4 |
| 20260901004423 | 73 | 223 | 3.0 | 4.0 | 0.00 | 0.00 | 0.00 | 78 | 1012.4 |
| 20260901003924 | 74 | 228 | 3.0 | 4.0 | 0.00 | 0.00 | 0.00 | 75 | 1012.6 |
| 20260901003422 | 74 | 228 | 3.0 | 4.0 | 0.00 | 0.00 | 0.00 | 75 | 1012.6 |
| 20260901002921 | 75 | 231 | 4.0 | 4.0 | 0.00 | 0.00 | 0.00 | 72 | 1012.7 |
| 20260901002422 | 75 | 228 | 2.0 | 4.0 | 0.00 | 0.00 | 0.00 | 72 | 1012.6 |
| 20260901001921 | 75 | 234 | 2.0 | 4.0 | 0.00 | 0.00 | 0.00 | 74 | 1012.6 |
| 20260901001421 | 75 | 240 | 2.0 | 4.0 | 0.00 | 0.00 | 0.00 | 68 | 1012.6 |
| 20260901000919 | 76 | 221 | 2.0 | 3.0 | 0.00 | 0.00 | 0.00 | 70 | 1012.6 |
| 20260901000420 | 76 | 234 | 1.0 | 2.0 | 0.00 | 0.00 | 0.00 | 67 | 1012.4 |
| 20260831235920 | 76 | 234 | 1.0 | 3.0 | 0.00 | 0.00 | 0.00 | 66 | 1012.4 |
| 20260831235419 | 76 | 234 | 2.0 | 3.0 | 0.00 | 0.00 | 0.00 | 67 | 1012.4 |
| 20260831234919 | 76 | 254 | 2.0 | 2.0 | 0.00 | 0.00 | 0.00 | 66 | 1012.7 |
| 20260831234417 | 76 | 254 | 1.0 | 2.0 | 0.00 | 0.00 | 0.00 | 66 | 1012.4 |
| 20260831233919 | 77 | 257 | 2.0 | 2.0 | 0.00 | 0.00 | 0.00 | 67 | 1012.6 |
| 20260831233417 | 77 | 262 | 1.0 | 4.0 | 0.00 | 0.00 | 0.00 | 64 | 1012.4 |
| 20260831232918 | 78 | 258 | 3.0 | 4.0 | 0.00 | 0.00 | 0.00 | 64 | 1012.4 |
| 20260831232417 | 79 | 243 | 3.0 | 4.0 | 0.00 | 0.00 | 0.00 | 63 | 1012.6 |
| 20260831232204 | 80 | 245 | 2.0 | 5.0 | 0.00 | 0.00 | 0.00 | 55 | 1012.4 |
| 20260831231703 | 80 | 258 | 2.0 | 6.0 | 0.00 | 0.00 | 0.00 | 50 | 1012.6 |
| 20260831231203 | 81 | 281 | 3.0 | 6.0 | 0.00 | 0.00 | 0.00 | 50 | 1012.6 |
| 20260831230409 | 81 | 261 | 2.0 | 6.0 | 0.00 | 0.00 | 0.00 | 49 | 1012.4 |
| 20260831225909 | 82 | 261 | 4.0 | 7.0 | 0.00 | 0.00 | 0.00 | 48 | 1012.6 |
| 20260831225658 | 82 | 268 | 4.0 | 7.0 | 0.00 | 0.00 | 0.00 | 55 | 1012.4 |
| 20260831224909 | 82 | 278 | 4.0 | 7.0 | 0.00 | 0.00 | 0.00 | 52 | 1012.4 |
| 20260831224659 | 83 | 276 | 4.0 | 7.0 | 0.00 | 0.00 | 0.00 | 52 | 1012.3 |
| 20260831223909 | 83 | 283 | 5.0 | 7.0 | 0.00 | 0.00 | 0.00 | 48 | 1012.3 |
| 20260831223409 | 83 | 271 | 5.0 | 9.0 | 0.00 | 0.00 | 0.00 | 47 | 1012.3 |
| 20260831222909 | 83 | 290 | 5.0 | 11.0 | 0.00 | 0.00 | 0.00 | 47 | 1012.4 |
| 20260831222408 | 83 | 312 | 5.0 | 11.0 | 0.00 | 0.00 | 0.00 | 48 | 1012.4 |
| 20260831221907 | 84 | 244 | 5.0 | 10.0 | 0.00 | 0.00 | 0.00 | 45 | 1012.3 |
| 20260831221409 | 84 | 310 | 5.0 | 10.0 | 0.00 | 0.00 | 0.00 | 44 | 1012.3 |
| 20260831220908 | 84 | 290 | 7.0 | 11.0 | 0.00 | 0.00 | 0.00 | 48 | 1012.3 |
| 20260831220405 | 85 | 265 | 8.0 | 11.0 | 0.00 | 0.00 | 0.00 | 46 | 1012.2 |
| 20260831220157 | 85 | 240 | 6.0 | 9.0 | 0.00 | 0.00 | 0.00 | 46 | 1012.1 |
| 20260831215655 | 85 | 261 | 4.0 | 9.0 | 0.00 | 0.00 | 0.00 | 48 | 1012.2 |
| 20260831214904 | 85 | 259 | 5.0 | 9.0 | 0.00 | 0.00 | 0.00 | 41 | 1012.1 |
| 20260831214403 | 85 | 289 | 5.0 | 10.0 | 0.00 | 0.00 | 0.00 | 46 | 1012.1 |
| 20260831213902 | 85 | 306 | 6.0 | 10.0 | 0.00 | 0.00 | 0.00 | 49 | 1012.1 |
| 20260831213707 | 85 | 262 | 6.0 | 9.0 | 0.00 | 0.00 | 0.00 | 44 | 1012.1 |
| 20260831212651 | 85 | 279 | 6.0 | 10.0 | 0.00 | 0.00 | 0.00 | 48 | 1012.1 |
| 20260831211902 | 86 | 302 | 5.0 | 10.0 | 0.00 | 0.00 | 0.00 | 46 | 1012.1 |
| 20260831211404 | 86 | 283 | 5.0 | 11.0 | 0.00 | 0.00 | 0.00 | 44 | 1012.2 |
| 20260831210902 | 86 | 292 | 6.0 | 11.0 | 0.00 | 0.00 | 0.00 | 41 | 1012.2 |
| 20260831210402 | 86 | 261 | 4.0 | 12.0 | 0.00 | 0.00 | 0.00 | 40 | 1012.3 |
| 20260831205917 | 86 | 293 | 8.0 | 12.0 | 0.00 | 0.00 | 0.00 | 48 | 1012.3 |
| 20260831204905 | 86 | 299 | 7.0 | 11.0 | 0.00 | 0.00 | 0.00 | 41 | 1012.3 |
| 20260831204402 | 86 | 305 | 7.0 | 11.0 | 0.00 | 0.00 | 0.00 | 46 | 1012.2 |
| 20260831203901 | 86 | 316 | 5.0 | 11.0 | 0.00 | 0.00 | 0.00 | 45 | 1012.3 |
| 20260831203401 | 86 | 271 | 6.0 | 11.0 | 0.00 | 0.00 | 0.00 | 47 | 1012.3 |
| 20260831202902 | 85 | 252 | 2.0 | 12.0 | 0.00 | 0.00 | 0.00 | 43 | 1012.3 |
| 20260831202402 | 86 | 343 | 8.0 | 12.0 | 0.00 | 0.00 | 0.00 | 45 | 1012.3 |
| 20260831201902 | 86 | 303 | 8.0 | 12.0 | 0.00 | 0.00 | 0.00 | 48 | 1012.3 |
| 20260831201400 | 85 | 305 | 3.0 | 9.0 | 0.00 | 0.00 | 0.00 | 45 | 1012.2 |
| 20260831201151 | 85 | 312 | 3.0 | 10.0 | 0.00 | 0.00 | 0.00 | 44 | 1012.2 |
| 20260831200403 | 85 | 295 | 5.0 | 10.0 | 0.00 | 0.00 | 0.00 | 52 | 1012.1 |
| 20260831195902 | 85 | 312 | 4.0 | 9.0 | 0.00 | 0.00 | 0.00 | 47 | 1012.2 |
| 20260831195401 | 85 | 312 | 6.0 | 9.0 | 0.00 | 0.00 | 0.00 | 54 | 1012.1 |
| 20260831194901 | 85 | 303 | 3.0 | 9.0 | 0.00 | 0.00 | 0.00 | 50 | 1012.1 |
| 20260831194401 | 85 | 323 | 5.0 | 11.0 | 0.00 | 0.00 | 0.00 | 52 | 1012.0 |
| 20260831193901 | 86 | 282 | 6.0 | 12.0 | 0.00 | 0.00 | 0.00 | 48 | 1012.0 |
| 20260831193403 | 85 | 292 | 8.0 | 12.0 | 0.00 | 0.00 | 0.00 | 46 | 1012.0 |
| 20260831192900 | 84 | 310 | 7.0 | 10.0 | 0.00 | 0.00 | 0.00 | 52 | 1012.0 |
| 20260831192403 | 82 | 323 | 4.0 | 9.0 | 0.00 | 0.00 | 0.00 | 52 | 1012.0 |
| 20260831191900 | 81 | 321 | 6.0 | 10.0 | 0.00 | 0.00 | 0.00 | 56 | 1011.9 |
| 20260831191403 | 82 | 307 | 6.0 | 12.0 | 0.00 | 0.00 | 0.00 | 53 | 1011.9 |
| 20260831190901 | 83 | 323 | 7.0 | 12.0 | 0.00 | 0.00 | 0.00 | 50 | 1011.8 |
| 20260831190401 | 85 | 329 | 2.0 | 11.0 | 0.00 | 0.00 | 0.00 | 46 | 1011.9 |
| 20260831185900 | 85 | 314 | 6.0 | 11.0 | 0.00 | 0.00 | 0.00 | 49 | 1011.9 |
| 20260831185401 | 84 | 313 | 5.0 | 15.0 | 0.00 | 0.00 | 0.00 | 52 | 1011.9 |
| 20260831184901 | 83 | 330 | 9.0 | 15.0 | 0.00 | 0.00 | 0.00 | 54 | 1011.9 |
| 20260831184403 | 84 | 327 | 7.0 | 15.0 | 0.00 | 0.00 | 0.00 | 56 | 1012.0 |
| 20260831183902 | 86 | 295 | 11.0 | 13.0 | 0.00 | 0.00 | 0.00 | 54 | 1011.9 |
| 20260831183650 | 85 | 299 | 8.0 | 12.0 | 0.00 | 0.00 | 0.00 | 46 | 1011.9 |
| 20260831182900 | 84 | 303 | 5.0 | 12.0 | 0.00 | 0.00 | 0.00 | 52 | 1011.9 |
| 20260831182401 | 84 | 333 | 9.0 | 12.0 | 0.00 | 0.00 | 0.00 | 46 | 1011.9 |
| 20260831181901 | 85 | 357 | 4.0 | 10.0 | 0.00 | 0.00 | 0.00 | 54 | 1012.0 |
| 20260831181402 | 85 | 7 | 5.0 | 14.0 | 0.00 | 0.00 | 0.00 | 58 | 1012.0 |
| 20260831180901 | 85 | 347 | 9.0 | 14.0 | 0.00 | 0.00 | 0.00 | 52 | 1011.9 |
| 20260831180401 | 85 | 303 | 9.0 | 15.0 | 0.00 | 0.00 | 0.00 | 55 | 1012.0 |
| 20260831175901 | 84 | 317 | 11.0 | 18.0 | 0.00 | 0.00 | 0.00 | 55 | 1012.1 |
| 20260831175401 | 83 | 319 | 11.0 | 18.0 | 0.00 | 0.00 | 0.00 | 50 | 1012.0 |
| 20260831175150 | 84 | 312 | 10.0 | 15.0 | 0.00 | 0.00 | 0.00 | 54 | 1012.0 |
| 20260831174423 | 84 | 274 | 9.0 | 15.0 | 0.00 | 0.00 | 0.00 | 57 | 1012.0 |
| 20260831173405 | 84 | 320 | 8.0 | 14.0 | 0.00 | 0.00 | 0.00 | 57 | 1012.0 |
| 20260831172904 | 83 | 300 | 10.0 | 16.0 | 0.00 | 0.00 | 0.00 | 52 | 1012.0 |
| 20260831172404 | 83 | 300 | 13.0 | 17.0 | 0.00 | 0.00 | 0.00 | 58 | 1012.0 |
| 20260831172146 | 82 | 292 | 11.0 | 17.0 | 0.00 | 0.00 | 0.00 | 57 | 1012.0 |
| 20260831171401 | 83 | 320 | 11.0 | 15.0 | 0.00 | 0.00 | 0.00 | 62 | 1012.0 |
| 20260831170901 | 83 | 317 | 13.0 | 15.0 | 0.00 | 0.00 | 0.00 | 59 | 1012.0 |
| 20260831170642 | 83 | 286 | 10.0 | 14.0 | 0.00 | 0.00 | 0.00 | 64 | 1011.9 |
| 20260831165900 | 82 | 305 | 10.0 | 16.0 | 0.00 | 0.00 | 0.00 | 65 | 1011.9 |
| 20260831165401 | 81 | 324 | 12.0 | 16.0 | 0.00 | 0.00 | 0.00 | 64 | 1011.9 |
| 20260831164901 | 81 | 316 | 11.0 | 16.0 | 0.00 | 0.00 | 0.00 | 66 | 1012.0 |
| 20260831164400 | 83 | 279 | 7.0 | 14.0 | 0.00 | 0.00 | 0.00 | 67 | 1012.0 |
| 20260831163902 | 82 | 320 | 9.0 | 15.0 | 0.00 | 0.00 | 0.00 | 66 | 1011.9 |
| 20260831163359 | 81 | 302 | 11.0 | 15.0 | 0.00 | 0.00 | 0.00 | 68 | 1011.8 |
| 20260831162900 | 82 | 348 | 7.0 | 16.0 | 0.00 | 0.00 | 0.00 | 68 | 1011.9 |
| 20260831162358 | 81 | 299 | 14.0 | 17.0 | 0.00 | 0.00 | 0.00 | 70 | 1011.8 |
| 20260831161856 | 81 | 309 | 10.0 | 17.0 | 0.00 | 0.00 | 0.00 | 70 | 1011.6 |
| 20260831161357 | 81 | 306 | 10.0 | 16.0 | 0.00 | 0.00 | 0.00 | 72 | 1011.8 |
| 20260831160856 | 80 | 320 | 9.0 | 13.0 | 0.00 | 0.00 | 0.00 | 73 | 1011.7 |
| 20260831160353 | 80 | 292 | 9.0 | 14.0 | 0.00 | 0.00 | 0.00 | 74 | 1011.5 |
| 20260831155853 | 79 | 300 | 10.0 | 14.0 | 0.00 | 0.00 | 0.00 | 76 | 1011.5 |
| 20260831155634 | 77 | 313 | 8.0 | 15.0 | 0.00 | 0.00 | 0.00 | 76 | 1011.6 |
| 20260831154851 | 76 | 313 | 10.0 | 15.0 | 0.00 | 0.00 | 0.00 | 80 | 1011.6 |
| 20260831154351 | 76 | 333 | 11.0 | 14.0 | 0.00 | 0.00 | 0.00 | 79 | 1011.6 |
| 20260831153851 | 76 | 302 | 9.0 | 16.0 | 0.00 | 0.00 | 0.00 | 80 | 1011.6 |
| 20260831153632 | 76 | 307 | 11.0 | 16.0 | 0.00 | 0.00 | 0.00 | 79 | 1011.5 |
| 20260831152850 | 76 | 319 | 8.0 | 15.0 | 0.00 | 0.00 | 0.00 | 78 | 1011.4 |
| 20260831152350 | 78 | 312 | 12.0 | 15.0 | 0.00 | 0.00 | 0.00 | 75 | 1011.3 |
| 20260831151850 | 79 | 312 | 7.0 | 13.0 | 0.00 | 0.00 | 0.00 | 78 | 1011.3 |
| 20260831151349 | 79 | 323 | 9.0 | 12.0 | 0.00 | 0.00 | 0.00 | 76 | 1011.3 |
| 20260831150849 | 79 | 337 | 7.0 | 14.0 | 0.00 | 0.00 | 0.00 | 78 | 1011.3 |
| 20260831150350 | 78 | 0 | 6.0 | 14.0 | 0.00 | 0.00 | 0.00 | 80 | 1011.2 |
| 20260831150135 | 77 | 334 | 10.0 | 15.0 | 0.00 | 0.00 | 0.00 | 80 | 1011.1 |
| 20260831145349 | 78 | 312 | 12.0 | 15.0 | 0.00 | 0.00 | 0.00 | 79 | 1010.9 |
| 20260831144846 | 76 | 348 | 9.0 | 18.0 | 0.00 | 0.00 | 0.00 | 81 | 1010.7 |
| 20260831144632 | 76 | 0 | 11.0 | 18.0 | 0.00 | 0.00 | 0.00 | 81 | 1010.6 |
| 20260831143846 | 76 | 0 | 12.0 | 18.0 | 0.00 | 0.00 | 0.00 | 81 | 1010.5 |
| 20260831143345 | 76 | 354 | 13.0 | 21.0 | 0.00 | 0.00 | 0.00 | 81 | 1010.5 |
| 20260831142845 | 75 | 329 | 14.0 | 22.0 | 0.00 | 0.00 | 0.00 | 83 | 1010.5 |
| 20260831142345 | 74 | 327 | 15.0 | 22.0 | 0.00 | 0.00 | 0.00 | 85 | 1010.5 |
| 20260831142127 | 75 | 347 | 14.0 | 18.0 | 0.00 | 0.00 | 0.00 | 87 | 1010.4 |
| 20260831141345 | 75 | 316 | 8.0 | 13.0 | 0.00 | 0.00 | 0.00 | 89 | 1010.5 |
| 20260831140846 | 74 | 316 | 10.0 | 14.0 | 0.00 | 0.00 | 0.00 | 91 | 1010.4 |
| 20260831140346 | 73 | 329 | 10.0 | 14.0 | 0.00 | 0.00 | 0.00 | 92 | 1010.5 |
| 20260831135844 | 72 | 345 | 8.0 | 15.0 | 0.00 | 0.00 | 0.00 | 93 | 1010.3 |
| 20260831135344 | 72 | 326 | 11.0 | 15.0 | 0.00 | 0.00 | 0.00 | 93 | 1010.3 |
| 20260831135127 | 72 | 327 | 10.0 | 14.0 | 0.00 | 0.00 | 0.00 | 93 | 1010.6 |
| 20260831134346 | 71 | 330 | 9.0 | 13.0 | 0.00 | 0.00 | 0.00 | 93 | 1010.5 |
| 20260831133845 | 71 | 316 | 8.0 | 15.0 | 0.00 | 0.00 | 0.00 | 93 | 1010.4 |
| 20260831133345 | 71 | 314 | 7.0 | 15.0 | 0.00 | 0.00 | 0.00 | 93 | 1010.4 |
| 20260831132846 | 71 | 316 | 10.0 | 13.0 | 0.00 | 0.00 | 0.00 | 93 | 1010.4 |
| 20260831132344 | 71 | 321 | 6.0 | 12.0 | 0.00 | 0.00 | 0.00 | 93 | 1010.4 |
| 20260831131845 | 71 | 286 | 8.0 | 12.0 | 0.00 | 0.00 | 0.00 | 93 | 1010.3 |
| 20260831131343 | 71 | 326 | 10.0 | 12.0 | 0.00 | 0.00 | 0.00 | 93 | 1010.2 |
| 20260831130843 | 71 | 309 | 6.0 | 7.0 | 0.00 | 0.00 | 0.00 | 94 | 1010.0 |
| 20260831130343 | 71 | 275 | 4.0 | 7.0 | 0.00 | 0.00 | 0.00 | 93 | 1009.7 |
| 20260831130128 | 71 | 306 | 5.0 | 7.0 | 0.00 | 0.00 | 0.00 | 93 | 1009.6 |
| 20260831125623 | 71 | 292 | 4.0 | 6.0 | 0.00 | 0.00 | 0.00 | 93 | 1009.4 |
| 20260831124843 | 71 | 300 | 4.0 | 6.0 | 0.00 | 0.00 | 0.00 | 94 | 1009.4 |
| 20260831124359 | 71 | 310 | 3.0 | 4.0 | 0.00 | 0.00 | 0.00 | 94 | 1009.3 |
| 20260831123344 | 70 | 283 | 0.0 | 2.0 | 0.00 | 0.00 | 0.00 | 93 | 1009.1 |
| 20260831122844 | 71 | 283 | 0.0 | 2.0 | 0.00 | 0.00 | 0.00 | 93 | 1009.0 |
| 20260831122343 | 71 | 283 | 1.0 | 2.0 | 0.00 | 0.00 | 0.00 | 94 | 1009.1 |
| 20260831121843 | 70 | 283 | 0.0 | 3.0 | 0.00 | 0.00 | 0.00 | 94 | 1008.9 |
| 20260831121344 | 70 | 283 | 1.0 | 3.0 | 0.00 | 0.00 | 0.00 | 94 | 1009.0 |
| 20260831120843 | 70 | 290 | 2.0 | 3.0 | 0.00 | 0.00 | 0.00 | 94 | 1008.8 |
| 20260831120343 | 70 | 300 | 1.0 | 2.0 | 0.00 | 0.00 | 0.00 | 94 | 1008.8 |
| 20260831120127 | 70 | 283 | 1.0 | 3.0 | 0.00 | 0.00 | 0.00 | 94 | 1008.7 |
| 20260831115401 | 70 | 286 | 1.0 | 3.0 | 0.00 | 0.00 | 0.00 | 93 | 1008.8 |
| 20260831114344 | 70 | 282 | 2.0 | 5.0 | 0.00 | 0.00 | 0.00 | 94 | 1008.8 |
| 20260831113842 | 70 | 298 | 1.0 | 5.0 | 0.00 | 0.00 | 0.00 | 94 | 1008.7 |
| 20260831113344 | 70 | 240 | 2.0 | 5.0 | 0.00 | 0.00 | 0.00 | 93 | 1008.6 |
| 20260831112844 | 70 | 269 | 2.0 | 3.0 | 0.00 | 0.00 | 0.00 | 93 | 1008.6 |
| 20260831112343 | 70 | 223 | 1.0 | 3.0 | 0.00 | 0.00 | 0.00 | 93 | 1008.5 |
| 20260831111843 | 70 | 202 | 2.0 | 4.0 | 0.00 | 0.00 | 0.00 | 93 | 1008.3 |
| 20260831111343 | 70 | 200 | 2.0 | 6.0 | 0.00 | 0.00 | 0.00 | 93 | 1008.3 |
| 20260831110843 | 70 | 214 | 2.0 | 6.0 | 0.00 | 0.00 | 0.00 | 93 | 1008.3 |
| 20260831110343 | 70 | 189 | 5.0 | 6.0 | 0.00 | 0.00 | 0.00 | 93 | 1008.3 |
| 20260831105843 | 70 | 193 | 4.0 | 6.0 | 0.00 | 0.00 | 0.00 | 93 | 1008.2 |
| 20260831105344 | 70 | 210 | 3.0 | 4.0 | 0.00 | 0.00 | 0.00 | 93 | 1008.3 |
| 20260831104843 | 70 | 224 | 3.0 | 5.0 | 0.00 | 0.00 | 0.00 | 93 | 1008.1 |